This demonstration page uses our WeatherBlox Daily Observations layout. Learn more.

Left ArrowRight Arrow

Hourly Observations for October 29, 2019

Temp ( °F °C ) Dew Point ( °F °C ) Humidity (%) Winds ( mph kmh ) Pressure ( in mb ) Visibility ( mi km ) Precip ( " mm )
12:53 am 00:53 Clear with Mist and Fog 45 7.2 44 6.7 97 97 Calm 30.06 1018 6 10 0.00 0.00
1:53 am 01:53 Clear with Mist and Fog 44 6.7 43 6.1 96 96 Calm 30.06 1018 5 8 0.00 0.00
2:53 am 02:53 Mostly Clear with Mist and Fog 43 6.1 43 6.1 100 100 Calm 30.06 1018 5 8 0.00 0.00
3:53 am 03:53 Cloudy with Mist and Fog 48 8.9 48 8.9 100 100 Calm 30.06 1018 6 10 0.00 0.00
4:53 am 04:53 Cloudy with Mist and Fog 50 10 50 10 100 100 Calm 30.08 1019 6 10 0.00 0.00
5:33 am 05:33 Cloudy with Light Rain 51 10.6 50 10 96 96 Calm 30.10 1019 4 6 0.00 0.00
5:53 am 05:53 Cloudy with Mist and Fog 51 10.6 50 10 96 96 Calm 30.09 1019 3 5 0.00 0.00
6:18 am 06:18 Cloudy with Mist and Fog 51 10.6 50 10 96 96 Calm 30.11 1020 5 8 0.00 0.00
6:45 am 06:45 Mostly Cloudy with Mist and Fog 50 10 50 10 100 100 Calm 30.11 1020 4 6 0.00 0.00
6:53 am 06:53 Mostly Cloudy with Mist and Fog 49 9.4 49 9.4 100 100 Calm 30.10 1019 4 6 0.00 0.00
7:07 am 07:07 Mostly Cloudy with Mist and Fog 48 8.9 48 8.9 100 100 Calm 30.12 1020 2 3 0.00 0.00
7:12 am 07:12 Cloudy with Mist and Fog 48 8.9 48 8.9 100 100 Calm 30.12 1020 1 2 0.00 0.00
7:23 am 07:23 Cloudy with Mist and Fog 49 9.4 49 9.4 100 100 Calm 30.12 1020 2 3 0.00 0.00
7:34 am 07:34 Cloudy with Mist and Fog 50 10 49 9.4 96 96 Calm 30.13 1020 3 5 0.00 0.00
7:53 am 07:53 Cloudy with Mist and Fog 50 10 50 10 100 100 Calm 30.12 1020 4 6 0.00 0.00
8:53 am 08:53 Cloudy with Mist and Fog 52 11.1 51 10.6 97 97 Calm 30.15 1021 4 6 0.00 0.00
9:53 am 09:53 Cloudy 54 12.2 52 11.1 93 93 Calm 30.16 1021 9 14 0.00 0.00
10:53 am 10:53 Cloudy 56 13.3 52 11.1 87 87 SSW 3 6 30.18 1022 10 16 0.00 0.00
11:53 am 11:53 Cloudy 58 14.4 51 10.6 78 78 SW 5 7 30.20 1023 10 16 0.00 0.00
12:53 pm 12:53 Cloudy 59 15 51 10.6 75 75 WSW 7 11 30.20 1023 10 16 0.00 0.00
1:53 pm 13:53 Cloudy 60 15.6 49 9.4 67 67 VRB 5 7 30.18 1022 10 16 0.00 0.00
2:29 pm 14:29 Partly Cloudy 63 17.2 50 10 63 63 VRB 6 9 30.15 1021 10 16 0.00 0.00
2:53 pm 14:53 Mostly Cloudy 62 16.7 50 10 65 65 VRB 5 7 30.16 1021 10 16 0.00 0.00
3:41 pm 15:41 Cloudy 61 16.1 50 10 67 67 VRB 3 6 30.16 1021 10 16 0.00 0.00
3:53 pm 15:53 Cloudy 62 16.7 50 10 65 65 S 5 7 30.17 1022 10 16 0.00 0.00
4:33 pm 16:33 Cloudy 61 16.1 50 10 67 67 VRB 3 6 30.17 1022 10 16 0.00 0.00
4:53 pm 16:53 Cloudy 61 16.1 50 10 67 67 Calm 30.19 1022 10 16 0.00 0.00
5:53 pm 17:53 Cloudy 60 15.6 50 10 70 70 VRB 3 6 30.19 1022 10 16 0.00 0.00
6:16 pm 18:16 Cloudy 60 15.6 51 10.6 72 72 Calm 30.20 1023 10 16 0.00 0.00
6:50 pm 18:50 Cloudy 61 16 52 11 72 72 Calm 30.19 1023 10 16 0.00 0.00
6:53 pm 18:53 Cloudy 60 15.6 51 10.6 72 72 S 3 6 30.20 1023 10 16 0.00 0.00
7:53 pm 19:53 Cloudy 58 14.4 52 11.1 81 81 Calm 30.21 1023 10 16 0.00 0.00
8:11 pm 20:11 Cloudy 57 13.9 52 11.1 83 83 Calm 30.21 1023 10 16 0.00 0.00
8:37 pm 20:37 Cloudy 57 13.9 53 11.7 87 87 Calm 30.21 1023 10 16 0.00 0.00
8:53 pm 20:53 Cloudy 57 13.9 52 11.1 83 83 Calm 30.21 1023 10 16 0.00 0.00
9:53 pm 21:53 Cloudy 56 13.3 52 11.1 87 87 Calm 30.21 1023 10 16 0.00 0.00
10:53 pm 22:53 Cloudy 54 12.2 52 11.1 93 93 Calm 30.21 1023 10 16 0.00 0.00
11:53 pm 23:53 Mostly Clear 51 10.6 50 10 96 96 Calm 30.21 1023 8 13 0.00 0.00

Powered by AerisWeather